Weather History for Windsor Locks, CT

Change the Weather History Date:

Monday, January 6, 2014

  Actual Average Record
Temperature  
Mean Temperature 41 °F 26 °F  
Max Temperature 55 °F 35 °F 72 °F (2007)
Min Temperature 26 °F 18 °F -6 °F (1976)
Degree Days  
Heating Degree Days 24 39  
Month to date heating degree days 280 231  
Since 1 July heating degree days 2576 2475  
Cooling Degree Days 0 0  
Month to date cooling degree days 0 0  
Year to date cooling degree days 0 0  
Moisture  
Dew Point 36 °F    
Average Humidity 77    
Maximum Humidity 100    
Minimum Humidity 53    
Precipitation  
Precipitation 1.04 in 0.11 in 2.18 in (1962)
Month to date precipitation 1.46 0.61  
Year to date precipitation 1.46 0.61  
Snow  
Snow T in 0.40 in 4.70 in (2005)
Month to date snowfall 7.2 2.3  
Since 1 July snowfall 19.9 11.7  
Snow Depth 5.00 in    
Sea Level Pressure  
Sea Level Pressure 29.50 in    
Wind  
Wind Speed 9 mph (West)    
Max Wind Speed 29 mph    
Max Gust Speed 36 mph    
Visibility 4 miles    
Events Fog , Rain , Snow    
T = Trace of Precipitation, MM = Missing Value Source: NWS Daily Summary

Daily Weather History Graph

Daily Weather History Graph

Search for Another Location

Airport:

Trip Planner

Search our weather history database for the weather conditions in past years. The results will help you decide how hot, cold, wet, or windy it might be!

Date:

Astronomy

Jan. 06, 2014 Rise Set
Actual Time 7:18 AM EST 4:34 PM EST
Civil Twilight 6:47 AM EST 5:06 PM EST
Nautical Twilight 6:12 AM EST 5:41 PM EST
Astronomical Twilight 5:38 AM EST 6:14 PM EST
Moon 10:26 AM EST (1/6) 11:11 PM EST (1/6)
Length of Visible Light 10h 18m
Length of Day
9h 16m
Waxing Crescent, 34% of the Moon is Illuminated
Jan 6
Waxing Crescent
Jan 7
First Quarter
Jan 15
Full
Jan 24
Last Quarter
Jan 30
New

Hourly Weather History & Observations

Time (EST) Temp. Windchill Dew Point Humidity Pressure Visibility Wind Dir Wind Speed Gust Speed Precip Events Conditions
12:25 AM 32.0 °F 27.5 °F 30.2 °F 93% 29.83 in 0.5 mi NW 4.6 mph - 0.01 in   Light Freezing Drizzle
12:39 AM 32.0 °F 27.5 °F 30.2 °F 93% 29.81 in 2.0 mi NNE 4.6 mph - 0.01 in   Overcast
12:51 AM 32.0 °F 28.7 °F 30.9 °F 96% 29.81 in 2.0 mi North 3.5 mph - 0.01 in   Overcast
1:24 AM 32.0 °F 28.7 °F 30.2 °F 93% 29.77 in 0.5 mi NNE 3.5 mph - 0.00 in Rain Light Rain
1:47 AM 32.0 °F 28.7 °F 32.0 °F 100% 29.75 in 0.5 mi NW 3.5 mph - 0.01 in Rain Light Freezing Rain
1:51 AM 32.0 °F - 32.0 °F 100% 29.75 in 0.5 mi Calm Calm - 0.01 in Rain Light Rain
2:51 AM 33.1 °F - 30.9 °F 92% 29.68 in 0.5 mi Calm Calm - 0.04 in Rain Light Rain
3:51 AM 33.1 °F - 32.0 °F 96% 29.63 in 1.0 mi Calm Calm - 0.21 in Rain Light Rain
4:51 AM 33.1 °F - 32.0 °F 96% 29.59 in 0.5 mi Calm Calm - 0.02 in   Overcast
5:51 AM 33.1 °F 30.0 °F 32.0 °F 96% 29.54 in 0.5 mi West 3.5 mph - 0.01 in Rain Light Rain
6:27 AM 33.8 °F - 32.0 °F 93% 29.51 in 0.2 mi Calm Calm - 0.01 in Fog , Rain Light Rain
6:51 AM 33.1 °F - 33.1 °F 100% 29.49 in 0.2 mi Calm Calm - 0.03 in Fog , Rain Light Rain
7:04 AM 33.8 °F 30.8 °F 33.8 °F 100% 29.48 in 0.2 mi South 3.5 mph - 0.00 in Fog , Rain Light Rain
7:11 AM 35.6 °F 31.7 °F 33.8 °F 93% 29.47 in 0.2 mi South 4.6 mph - 0.01 in Fog , Rain Light Rain
7:47 AM 50.0 °F - 48.2 °F 94% 29.44 in 0.1 mi South 15.0 mph - 0.04 in Fog Fog
7:51 AM 50.0 °F - 48.9 °F 96% 29.44 in 0.1 mi South 13.8 mph - 0.04 in Fog , Rain Light Rain
8:19 AM 51.8 °F - 51.8 °F 100% 29.41 in 0.1 mi South 16.1 mph - 0.02 in Fog , Rain Light Rain
8:33 AM 51.8 °F - 51.8 °F 100% 29.40 in 0.1 mi South 19.6 mph - 0.04 in Fog , Rain Light Rain
8:51 AM 53.1 °F - 53.1 °F 100% 29.41 in 0.1 mi South 15.0 mph 23.0 mph 0.17 in Fog , Rain Heavy Rain
8:54 AM 51.8 °F - 51.8 °F 100% 29.40 in 0.5 mi South 17.3 mph 23.0 mph 0.01 in Rain Heavy Rain
9:04 AM 53.6 °F - 53.6 °F 100% 29.40 in 2.0 mi South 15.0 mph - 0.07 in Rain Rain
9:20 AM 53.6 °F - 53.6 °F 100% 29.39 in 2.5 mi South 15.0 mph - 0.12 in Rain Rain
9:51 AM 54.0 °F - 54.0 °F 100% 29.37 in 3.0 mi South 15.0 mph - 0.16 in Rain Light Rain
10:31 AM 55.4 °F - 53.6 °F 94% 29.36 in 3.0 mi South 17.3 mph 24.2 mph 0.04 in Rain Light Rain
10:35 AM 55.4 °F - 53.6 °F 94% 29.36 in 2.5 mi SSW 15.0 mph - 0.04 in Rain Light Rain
10:44 AM 53.6 °F - 51.8 °F 94% 29.39 in 3.0 mi West 26.5 mph 35.7 mph 0.08 in Rain Rain
10:51 AM 48.9 °F - 46.0 °F 90% 29.40 in 7.0 mi West 19.6 mph 35.7 mph 0.08 in Rain Light Rain
10:54 AM 48.2 °F - 44.6 °F 87% 29.40 in 9.0 mi West 23.0 mph 31.1 mph 0.00 in Rain Light Rain
11:08 AM 46.4 °F 39.5 °F 42.8 °F 87% 29.39 in 4.0 mi West 17.3 mph 31.1 mph 0.01 in Rain Rain
11:51 AM 48.0 °F - 43.0 °F 83% 29.37 in 10.0 mi SSW 9.2 mph - 0.07 in Rain Light Rain
12:51 PM 46.9 °F - 41.0 °F 80% 29.34 in 10.0 mi SSW 6.9 mph - 0.00 in   Overcast
1:51 PM 45.0 °F 40.1 °F 39.9 °F 82% 29.39 in 4.0 mi WSW 9.2 mph - 0.05 in Rain Rain
2:37 PM 39.2 °F 29.8 °F 35.6 °F 87% 29.40 in 5.0 mi NW 18.4 mph 25.3 mph 0.07 in Rain Light Rain
2:51 PM 37.0 °F 29.3 °F 33.1 °F 86% 29.44 in 4.0 mi NW 11.5 mph - 0.09 in Rain Light Rain
2:56 PM 35.6 °F 28.0 °F 33.8 °F 93% 29.44 in 3.0 mi NW 10.4 mph - 0.01 in Rain , Snow Light Rain
3:35 PM 35.6 °F 29.2 °F 30.2 °F 81% 29.42 in 9.0 mi NNW 8.1 mph - 0.05 in Snow Light Snow
3:51 PM 36.0 °F 30.3 °F 30.9 °F 82% 29.44 in 9.0 mi NW 6.9 mph 17.3 mph 0.05 in   Mostly Cloudy
4:51 PM 34.0 °F 22.7 °F 24.1 °F 67% 29.46 in 10.0 mi NW 19.6 mph 26.5 mph N/A   Mostly Cloudy
5:51 PM 33.1 °F 21.5 °F 21.9 °F 64% 29.48 in 10.0 mi NW 19.6 mph 25.3 mph N/A   Overcast
6:51 PM 32.0 °F 20.1 °F 18.0 °F 56% 29.52 in 10.0 mi NW 19.6 mph 24.2 mph N/A   Mostly Cloudy
7:51 PM 30.0 °F 19.5 °F 16.0 °F 56% 29.54 in 10.0 mi WNW 13.8 mph - N/A   Mostly Cloudy
8:51 PM 28.9 °F 21.1 °F 17.1 °F 61% 29.55 in 10.0 mi WNW 8.1 mph 16.1 mph 0.00 in Snow Light Snow
9:51 PM 28.9 °F 19.2 °F 17.1 °F 61% 29.56 in 10.0 mi WNW 11.5 mph - 0.00 in   Overcast
10:51 PM 27.0 °F 18.7 °F 16.0 °F 63% 29.55 in 10.0 mi WNW 8.1 mph - N/A   Scattered Clouds
11:51 PM 28.0 °F 21.7 °F 17.1 °F 63% 29.55 in 10.0 mi West 5.8 mph - N/A   Mostly Cloudy